Wenatchee, WA

11:59 AM PDT on June 26, 2017 (GMT -0700)
Pangborn Memorial

Weather History for KEAT - October, 2011

Change the Weather History Date:

Wednesday, October 26, 2011

  Actual Average Record
Temperature  
Mean Temperature 36 °F 42 °F  
Max Temperature 44 °F 52 °F 68 °F (1992)
Min Temperature 28 °F 32 °F 27 °F (2002)
Degree Days  
Heating Degree Days 29 23  
Month to date heating degree days 306 477  
Since 1 July heating degree days 359 833  
Cooling Degree Days 0 0  
Month to date cooling degree days 0 0  
Year to date cooling degree days 631 249  
Moisture  
Dew Point 28 °F    
Average Humidity 76    
Maximum Humidity 92    
Minimum Humidity 59    
Precipitation  
Precipitation 0.00 in 0.06 in 0.50 in (2016)
Month to date precipitation 0.66 1.00  
Year to date precipitation 5.95 12.05  
Sea Level Pressure  
Sea Level Pressure 30.31 in    
Wind  
Wind Speed 3 mph (NE)    
Max Wind Speed 13 mph    
Max Gust Speed 15 mph    
Visibility 10 miles    
Events      
T = Trace of Precipitation, MM = Missing Value Source: NWS Daily Summary

Daily Weather History Graph

Daily Weather History Graph

Search for Another Location

Airport or City:

Trip Planner

Search our weather history database for the weather conditions in past years. The results will help you decide how hot, cold, wet, or windy it might be!

Date:

Astronomy

Oct. 26, 2011 Rise Set
Actual Time 7:35 AM PDT 5:53 PM PDT
Civil Twilight 7:03 AM PDT 6:25 PM PDT
Nautical Twilight 6:27 AM PDT 7:01 PM PDT
Astronomical Twilight 5:52 AM PDT 7:36 PM PDT
Moon 7:33 AM PDT 5:33 PM PDT
Length of Visible Light 11h 21m
Length of Day
10h 18m
Waning Crescent, 0% of the Moon is Illuminated
Oct 26
Waning Crescent
Oct 26
New
Nov 2
First Quarter
Nov 10
Full
Nov 18
Last Quarter

Hourly Weather History & Observations

Time (PDT) Temp. Windchill Dew Point Humidity Pressure Visibility Wind Dir Wind Speed Gust Speed Precip Events Conditions
12:55 AM 39.0 °F 32.3 °F 27.0 °F 62% 30.43 in 10.0 mi NW 10.4 mph - N/A   Clear
1:55 AM 37.0 °F 32.4 °F 27.0 °F 67% 30.42 in 10.0 mi NW 5.8 mph - N/A   Clear
2:55 AM 36.0 °F 31.1 °F 27.0 °F 70% 30.41 in 10.0 mi NW 5.8 mph - N/A   Clear
3:55 AM 33.1 °F 27.7 °F 27.0 °F 78% 30.40 in 10.0 mi WNW 5.8 mph - N/A   Clear
4:55 AM 35.1 °F - 26.1 °F 70% 30.37 in 10.0 mi Calm Calm - N/A   Clear
5:55 AM 30.9 °F - 26.1 °F 82% 30.38 in 10.0 mi Calm Calm - N/A   Clear
6:55 AM 28.9 °F - 25.0 °F 85% 30.38 in 10.0 mi Calm Calm - N/A   Clear
7:55 AM 28.9 °F - 26.1 °F 89% 30.36 in 10.0 mi Calm Calm - N/A   Clear
8:55 AM 32.0 °F 26.4 °F 28.0 °F 85% 30.36 in 10.0 mi ENE 5.8 mph - N/A   Clear
9:55 AM 35.1 °F - 28.0 °F 76% 30.35 in 10.0 mi Calm Calm - N/A   Mostly Cloudy
10:55 AM 37.0 °F 34.5 °F 25.0 °F 62% 30.33 in 10.0 mi East 3.5 mph - N/A   Scattered Clouds
11:55 AM 37.9 °F 34.4 °F 26.1 °F 62% 30.31 in 10.0 mi East 4.6 mph - N/A   Overcast
12:55 PM 39.0 °F 35.7 °F 27.0 °F 62% 30.26 in 10.0 mi ESE 4.6 mph - N/A   Overcast
1:55 PM 41.0 °F 36.4 °F 28.0 °F 60% 30.25 in 10.0 mi SE 6.9 mph - N/A   Partly Cloudy
3:55 PM 43.0 °F 40.3 °F 32.0 °F 65% 30.19 in 10.0 mi East 4.6 mph - N/A   Clear
4:55 PM 43.0 °F - 30.9 °F 62% 30.18 in 10.0 mi Calm Calm - N/A   Clear
5:55 PM 39.9 °F 36.7 °F 30.9 °F 70% 30.17 in 10.0 mi NNE 4.6 mph - N/A   Partly Cloudy
6:55 PM 37.0 °F - 30.0 °F 76% 30.17 in 10.0 mi Calm Calm - N/A   Clear
8:55 PM 35.1 °F - 28.0 °F 76% 30.19 in 10.0 mi Calm Calm - N/A   Clear
11:55 PM 36.0 °F 33.3 °F 28.0 °F 73% 30.20 in 10.0 mi NNW 3.5 mph - N/A   Clear